This is the latest recevied weather packets stored in our database for station/object K6JWN. If no packets are shown the sender has not sent any weather packets the latest 10 day(s).
| Time | Temp. | Humidity | Pressure | Rain* | Wind** | Luminosity | Snow |
|---|---|---|---|---|---|---|---|
| 1777874958 | 12.78° C | 63% | 1013.4 hPa | 0 mm | - | - | - |
| 1777874358 | 12.78° C | 63% | 1013.5 hPa | 0 mm | - | - | - |
| 1777873758 | 12.78° C | 63% | 1013.5 hPa | 0 mm | - | - | - |
| 1777873157 | 12.78° C | 63% | 1013.1 hPa | 0 mm | - | - | - |
| 1777872557 | 13.33° C | 63% | 1012.9 hPa | 0 mm | - | - | - |
| 1777871957 | 13.33° C | 62% | 1013 hPa | 0 mm | - | - | - |
| 1777871357 | 13.33° C | 62% | 1013.2 hPa | 0 mm | - | - | - |
| 1777870757 | 13.89° C | 61% | 1013 hPa | 0 mm | - | - | - |
| 1777870157 | 13.89° C | 61% | 1012.9 hPa | 0 mm | - | - | - |
| 1777869557 | 13.89° C | 61% | 1012.7 hPa | 0 mm | - | - | - |
| 1777868957 | 14.44° C | 60% | 1012.7 hPa | 0 mm | - | - | - |
| 1777868357 | 14.44° C | 60% | 1012.7 hPa | 0 mm | - | - | - |
| 1777867757 | 14.44° C | 59% | 1012.7 hPa | 0 mm | - | - | - |
| 1777867157 | 15° C | 59% | 1012.5 hPa | 0 mm | - | - | - |
| 1777866557 | 15° C | 59% | 1012.4 hPa | 0 mm | - | - | - |
| 1777865957 | 15° C | 58% | 1012.3 hPa | 0 mm | - | - | - |
| 1777865357 | 15.56° C | 57% | 1012.2 hPa | 0 mm | - | - | - |
| 1777864757 | 15.56° C | 56% | 1012.1 hPa | 0 mm | - | - | - |
| 1777864157 | 16.11° C | 54% | 1012 hPa | 0 mm | - | - | - |
| 1777863557 | 16.11° C | 54% | 1011.8 hPa | 0 mm | - | - | - |
| 1777862957 | 16.67° C | 52% | 1011.7 hPa | 0 mm | - | - | - |
| 1777862357 | 16.67° C | 51% | 1011.6 hPa | 0 mm | - | - | - |
| 1777861757 | 17.22° C | 50% | 1011.6 hPa | 0 mm | - | - | - |
| 1777861157 | 17.22° C | 49% | 1011.5 hPa | 0 mm | - | - | - |
| 1777860557 | 17.78° C | 48% | 1011.3 hPa | 0 mm | - | - | - |
* Rain latest hour (hover to see other rain measurements)
** Current wind speed in m/s (hover to see current wind gust speed)